Погода в Зимино

Россия / Омская область     56°16′43″N   70°52′02″E
В апреле 2022 года жителям России запретили посещать сайт meteo.paraplan.net по решению Генеральной прокуратуры. Аудитория сайта уменьшилась в 10 раз. Владельцы сайта не видят смысла в поддержке погодного сервера в таких условиях. Сайт будет закрыт в октябре.
темп.,
°C
ветер,
м/с
пор.,
м/с
влажн.,
%
обл.,
%
осадки,
мм/ч
давл.,
гПа
погр.,
м
25 сентября, вс
вс2500:00+16св3562100 0.0 101186
03:00+13всв4781100 0.4 1010214
06:00+11св4685100 0.7 1012246
09:00+9св61084100 0.1 1012344
12:00+10всв687995 0.3 1013511
15:00+9св6876100 0.0 1015600
18:00+8св6972100 0.0 1015569
21:00+6св41175100 0.0 1016546
26 сентября, пн
пн2600:00+5всв51074100 0.0 1017584
03:00+3всв61278100 0.0 1017506
06:00+2всв61277100 0.0 1016516
09:00+3всв71173100 0.0 1016682
12:00+5в81058100 0.0 1015976
15:00+4в71068100 0.6 10131043
18:00+2всв71188100 3.3 1013726
21:00+1всв61294100 2.6 1013565
27 сентября, вт
вт2700:00+1всв61297100 3.7 1013500
03:000всв61198100 0.5 1012473
06:00−1всв61295100 0.9 1012499
09:000св6118791 0.2 1013565
12:00+3св686960 0.2 1014964
15:00+4св675596 0.0 10151419
18:00+3ссв5760100 0.0 1016415
21:00+1с3769100 0.0 1018183
28 сентября, ср
ср2800:00−1с357662 0.0 1018101
03:00−3с347832 0.0 101981
06:00−4с33816 0.0 102051
09:00−2с24715 0.0 1021176
12:00+3ссз335344 0.0 10211129
15:00+4ссз4448100 0.1 10201459
18:00+2с4562100 0.4 1021815
21:000с3674100 0.1 1022183
29 сентября, чт
чт2900:000ссз368197 0.1 1022233
03:00−1ссз3689100 0.0 1023324
06:00−2ссз489683 0.2 1024426
09:00−1с6888100 0.1 1025520
12:00+1с6772100 0.1 10261035
15:00+3с6753100 0.3 10261512
18:00+3с5858100 0.4 1028902
21:00−1с398093 0.1 1030219